This is the latest recevied weather packets stored in our database for station/object KG7MRB. If no packets are shown the sender has not sent any weather packets the latest 10 day(s).
| Time | Temp. | Humidity | Pressure | Rain* | Wind** | Luminosity | Snow |
|---|---|---|---|---|---|---|---|
| 1777332655 | 13.89° C | 74% | 1034.4 hPa | 0 mm | - | 147 W/m² | - |
| 1777332351 | 13.89° C | 75% | 1034.3 hPa | 0 mm | - | 178 W/m² | - |
| 1777332047 | 13.89° C | 75% | 1034.5 hPa | 0 mm | - | 126 W/m² | - |
| 1777331745 | 13.89° C | 75% | 1034.4 hPa | 0 mm | - | 157 W/m² | - |
| 1777331442 | 13.89° C | 74% | 1034.2 hPa | 0 mm | - | 274 W/m² | - |
| 1777331139 | 13.89° C | 73% | 1034.4 hPa | 0 mm | - | 167 W/m² | - |
| 1777330836 | 13.89° C | 74% | 1034.7 hPa | 0 mm | - | 187 W/m² | - |
| 1777330533 | 13.33° C | 75% | 1034.5 hPa | 0 mm | - | 156 W/m² | - |
| 1777330231 | 13.33° C | 74% | 1034.6 hPa | 0 mm | - | 105 W/m² | - |
| 1777329929 | 13.33° C | 74% | 1034.5 hPa | 0 mm | - | 141 W/m² | - |
| 1777329627 | 13.33° C | 74% | 1034.5 hPa | 0 mm | - | 154 W/m² | - |
| 1777329325 | 13.33° C | 75% | 1034.3 hPa | 0 mm | - | 123 W/m² | - |
| 1777329022 | 13.33° C | 74% | 1034.3 hPa | 0 mm | - | 147 W/m² | - |
| 1777328720 | 13.33° C | 74% | 1034.4 hPa | 0 mm | - | 150 W/m² | - |
| 1777328417 | 13.33° C | 73% | 1034.4 hPa | 0 mm | - | 136 W/m² | - |
| 1777328116 | 13.33° C | 73% | 1034.1 hPa | 0 mm | - | 133 W/m² | - |
| 1777327814 | 13.33° C | 72% | 1034.3 hPa | 0 mm | - | 130 W/m² | - |
| 1777327511 | 13.33° C | 72% | 1034.4 hPa | 0 mm | - | 112 W/m² | - |
| 1777327209 | 13.33° C | 72% | 1034.3 hPa | 0 mm | - | 122 W/m² | - |
| 1777326906 | 13.89° C | 70% | 1034.2 hPa | 0 mm | - | 164 W/m² | - |
| 1777326603 | 13.89° C | 70% | 1034.1 hPa | 0 mm | - | 195 W/m² | - |
| 1777326300 | 13.89° C | 70% | 1034.2 hPa | 0 mm | - | 235 W/m² | - |
| 1777325997 | 13.89° C | 71% | 1034.2 hPa | 0 mm | - | 206 W/m² | - |
| 1777325695 | 14.44° C | 69% | 1034.3 hPa | 0 mm | - | 188 W/m² | - |
| 1777325393 | 13.89° C | 69% | 1034.1 hPa | 0 mm | - | 197 W/m² | - |
* Rain latest hour (hover to see other rain measurements)
** Current wind speed in m/s (hover to see current wind gust speed)